www.pogodaiklimat.ru

Погода и климат >> Архив погоды >> Россия >> Магаданская область >> Балыгычан


ПОГОДА в Балыгычане

  • Прогноз погоды в Балыгычане
  • Монитор погоды в Балыгычане

АРХИВ ПОГОДЫ в Балыгычане

Время (UTC), дата Ветер
(напр.,м/с)
 
Видим.   Явления Облачность Т
(С)
Тd
(С)
f
(%)
Тe
(С)
Тes
(С)
Комфортность P
(гПа)
Po
(гПа)
Тmin
(С)
Tmax
(С)
R
(мм)
R24
(мм)
S
(см)
06 12.02 штиль 0 50 км ясно -36.1 -40.9 61 -36 -36 опасность
обморожения
1021.3 1000.0
09 12.02 штиль 0 50 км ясно -42.5 -47.1 60 -43 -43 опасность
обморожения
1021.8 1000.0 -34.2
12 12.02 штиль 0 50 км ясно -45.4 -50.5 56 -45 -45 опасность
обморожения
1023.5 1001.3
15 12.02 штиль 0 50 км ясно -45.2 -50.3 56 -45 -45 опасность
обморожения
1024.9 1002.7
18 12.02 штиль 0 50 км ясно -46.7 -51.9 55 -47 -47 опасность
обморожения
1025.0 1002.7
21 12.02 штиль 0 50 км ясно -47.2 -52.5 54 -47 -47 опасность
обморожения
1025.0 1002.7 -47.2
00 13.02 В 1 50 км ясно -40.3 -45.0 60 -46 -45 опасность
обморожения
1027.1 1005.3 -47.3
03 13.02 СВ 1 50 км ясно -35.2 -41.7 51 -40 -39 опасность
обморожения
1026.6 1005.3
06 13.02 В 1 50 км ясно -36.2 -41.8 56 -41 -41 опасность
обморожения
1026.7 1005.3
09 13.02 ЮВ 1 50 км ясно -39.5 -44.4 59 -45 -45 опасность
обморожения
1028.4 1006.7 -34.2
12 13.02 штиль 0 50 км ясно -44.0 -49.0 57 -44 -44 опасность
обморожения
1028.8 1006.7
15 13.02 В 1 50 км ясно -41.8 -46.5 60 -47 -47 опасность
обморожения
1027.2 1005.3
18 13.02 ЮВ 1 50 км 5/0
[Ci fib]
-43.8 -48.7 58 -49 -49 опасность
обморожения
1026.1 1004.0
21 13.02 ЮВ 1 50 км ясно -44.1 -49.1 57 -50 -50 опасность
обморожения
1023.6 1001.5 -44.3 38
00 14.02 В 1 50 км ясно -38.9 -43.5 61 -44 -43 опасность
обморожения
1022.8 1001.3
03 14.02 В 1 50 км ясно -34.8 -41.2 52 -39 -38 опасность
обморожения
1019.8 998.7
06 14.02 штиль 0 50 км 3/0
[Ci fib]
-36.2 -41.6 57 -36 -36 опасность
обморожения
1018.5 997.3
09 14.02 штиль 0 50 км ясно -40.0 -44.6 61 -40 -40 опасность
обморожения
1017.5 996.0 -33.6
12 14.02 штиль 0 50 км ясно -44.7 -49.7 57 -45 -45 опасность
обморожения
1016.6 994.7
15 14.02 штиль 0 50 км ясно -45.9 -51.1 55 -46 -46 опасность
обморожения
1015.3 993.3
18 14.02 штиль 0 50 км ясно -46.5 -51.7 55 -47 -47 опасность
обморожения
1014.1 992.0
21 14.02 штиль 0 50 км ясно -45.5 -50.7 56 -46 -46 опасность
обморожения
1012.4 990.5 -46.7 38
00 15.02 штиль 0 50 км ясно -39.0 -43.9 59 -39 -38 опасность
обморожения
1012.0 990.7
03 15.02 штиль 0 50 км ясно -32.9 -39.2 53 -33 -32 опасность
обморожения
1010.0 989.3
06 15.02 ЮВ 1 50 км ясно -33.6 -39.1 57 -38 -38 опасность
обморожения
1008.8 988.0
09 15.02 ЮВ 1 50 км ясно -31.0 -40.9 37 -35 -35 опасность
обморожения
1007.2 986.7
12 15.02 штиль 0 50 км ясно -42.1 -46.7 60 -42 -42 опасность
обморожения
1008.2 986.7
15 15.02 штиль 0 50 км ясно -43.2 -48.1 58 -43 -43 опасность
обморожения
1006.9 985.3
18 15.02 штиль 0 50 км ясно -43.6 -48.6 57 -44 -44 опасность
обморожения
1006.9 985.3
21 15.02 штиль 0 50 км 3/0
[Ac trans Ci fib]
-43.5 -48.5 57 -44 -44 опасность
обморожения
1005.8 984.3 -44.0 38
00 16.02 штиль 0 50 км 6/0
[Ac trans Ci fib]
-38.5 -43.3 60 -39 -38 опасность
обморожения
1005.1 984.0
03 16.02 штиль 0 50 км 3/0
[Ci fib]
-33.2 -39.3 54 -33 -32 опасность
обморожения
1003.3 982.7
06 16.02 штиль 0 50 км 8/3 1000 м
[Sc Ac trans Ci fib]
-33.9 -39.3 58 -34 -34 опасность
обморожения
1003.4 982.7
09 16.02 штиль 0 50 км 10/0
[Ac trans Cs]
-35.5 -39.7 65 -36 -36 опасность
обморожения
1003.5 982.7 -31.2
12 16.02 штиль 0 20 км слаб. снег 10/0
[Ac trans Cs]
-34.3 -38.7 64 -34 -34 опасность
обморожения
1003.4 982.7
15 16.02 штиль 0 20 км слаб. снег 10/0
[As op]
-33.6 -37.9 65 -34 -34 опасность
обморожения
1003.4 982.7
18 16.02 штиль 0 20 км слаб. снег 10/5 1000 м
[Sc As op]
-32.7 -37.0 65 -33 -33 опасность
обморожения
1003.3 982.7
21 16.02 штиль 0 20 км слаб. снег 10/3 1000 м
[Sc As op]
-31.9 -36.0 67 -32 -32 опасность
обморожения
1003.6 983.1 -35.5 0.3 38
00 17.02 ЮЗ 1 20 км слаб. снег 10/5 1000 м
[Sc As op]
-30.0 -34.4 65 -34 -34 опасность
обморожения
1005.7 985.3
03 17.02 штиль 0 20 км слаб. снег 10/6 1000 м
[Sc As op]
-27.3 -32.3 62 -27 -27 1005.5 985.3
06 17.02 штиль 0 20 км слаб. снег 10/8 1000 м
[Sc As op]
-26.9 -31.5 65 -27 -27 1006.9 986.7
09 17.02 ЮЗ 1 10 км слаб. снег 10/6 1000 м
[Sc As op]
-26.8 -31.1 67 -31 -31 опасность
обморожения
1008.2 988.0 -26.8 0.4
12 17.02 Ю 1 10 км слаб. снег 10/6 1000 м
[Sc As op]
-26.7 -30.5 70 -30 -30 1009.5 989.3
15 17.02 ЮЗ 1 10 км слаб. снег 10/6 1000 м
[Sc As op]
-26.6 -30.3 71 -30 -30 1009.5 989.3
18 17.02 штиль 0 10 км слаб. снег 10/6 1000 м
[Sc As op]
-26.5 -30.2 71 -27 -27 1009.5 989.3
21 17.02 штиль 0 10 км слаб. снег 10/8 1000 м
[Sc As op]
-26.4 -30.1 71 -26 -26 1009.5 989.3 -26.8 2 41
00 18.02 штиль 0 10 км слаб. снег 10/8 1000 м
[Sc As op]
-24.9 -29.4 66 -25 -25 1010.8 990.7
03 18.02 штиль 0 50 км {снег} 10/1 1000 м
[Sc Ci fib]
-23.3 -29.2 58 -23 -23 1010.7 990.7
06 18.02 штиль 0 50 км 10 баллов -24.3 -29.5 62 -24 -24 1012.1 992.0
09 18.02 штиль 0 50 км 10/0
[Ci fib]
-31.2 -34.6 72 -31 -31 опасность
обморожения
1014.0 993.3 -22.2 0.7
12 18.02 штиль 0 50 км 10 баллов -31.9 -35.5 70 -32 -32 опасность
обморожения
1015.5 994.7
15 18.02 штиль 0 50 км 10 баллов -31.8 -35.3 71 -32 -32 опасность
обморожения
1016.8 996.0
18 18.02 штиль 0 50 км 10 баллов -31.9 -35.5 70 -32 -32 опасность
обморожения
1018.1 997.3
21 18.02 штиль 0 50 км 10/0
[Ac As Ci fib]
-34.4 -38.1 69 -34 -34 опасность
обморожения
1018.5 997.5 -34.4 42
00 19.02 штиль 0 50 км 10 баллов -29.9 -34.0 67 -30 -30 1020.7 1000.0 -35.2

 

Местоположение метеостанции Балыгычан (Магаданская область, Россия): широта 63.91 долгота 154.10 высота над уровнем моря 146 м.

В архиве по умолчанию представлена погода в Балыгычане за последнюю неделю. Архивные данные за месяц целиком и за предыдущие месяцы, начиная с января 2011 года, Вы можете получить, выбрав интересующий диапазон дат из раскрывающегося списка и нажав кнопку "Ввод!".


*Определитесь, кто Вы:
робот инопланетянин человек

Внимание! Время в таблицах - всемирное. Для получения местного времени необходимо прибавить поправку, которая равна 11 ч.

Смотрите также архив погоды в соседних городах и на ближайших метеорологических станциях:

Погода в Коркодоне (Магаданская область, Россия) (94 км)
Погода в Сеймчане (Магаданская область, Россия) (140 км)
Погода в Омсукчане (Магаданская область, Россия) (177 км)
Погода в Среднекане (Магаданская область, Россия) (186 км)
Погода в Совхозе Эльген (Магаданская область, Россия) (214 км)
Погода в Лабазной (Магаданская область, Россия) (228 км)
Погода в Зырянке (Якутия, Россия) (253 км)
Погода в Усть-Бохапче (Магаданская область, Россия) (268 км)
Погода в Ягодной (Магаданская область, Россия) (274 км)
Погода на Озере Джека Лондона (Магаданская область, Россия) (309 км)

Пояснения к столбцам:

Ветер - указаны скорость ветра в м/с - средняя за 10 мин, порывы в срок и между сроками (в фигурных скобках) и направление, откуда дует ветер: С - северный, СВ - северо-восточный, В - восточный, ЮВ - юго-восточный, Ю - южный, ЮЗ - юго-западный, З - западный, СЗ - северо-западный.
Видимость - горизонтальная дальность видимости в метрах или километрах. При видимости от 1 до 10 км при отсутствии осадков обычно наблюдается дымка, при ухудшении видимости до 1 км и менее - туман. В сухую погоду видимость может ухудшаться дымом, пылью или мглою.
Явления - указаны атмосферные явления, наблюдавшиеся в срок или в последний час перед сроком; фигурными скобками обозначены явления, наблюдавшиеся между сроками (за 1-3 часа до срока); квадратными скобками обозначены град или гололедные отложения с указанием их диаметра в мм.
Облачность - указаны через наклонную черту общая и нижняя облачность в баллах и высота нижней границы облаков в метрах; квадратными скобками обозначены формы облаков: Ci - перистые, Cs - перисто-слоистые, Cc - перисто-кучевые, Ac - высококучевые, As - высокослоистые, Sc - слоисто-кучевые, Ns - слоисто-дождевые, Cu - кучевые, Cb - кучево-дождевые. Подробнее классификацию облаков см. в Атласе облаков (PDF).
T - Температура воздуха - температура, измеренная на высоте 2 м над землей.
Td - Температура точки росы - температура, при понижении до которой содержащийся в воздухе водяной пар достигнет насыщения.
f - Относительная влажность воздуха - влажноcть воздуха, измеренная на высоте 2 м над землей.
Te - Эффективная температура - температура, которую ощущает одетый по сезону человек в тени. Характеристика душности погоды. При расчете учитывается влияние влажности воздуха и скорости ветра на теплоощущения человека.
Tes - Эффективная температура на солнце - температура, которую ощущает человек, с поправкой на солнечный нагрев. Характеристика знойности погоды. Зависит от высоты солнца над горизонтом, облачности и скорости ветра. Ночью, в пасмурную погоду, а также при ветре 12 м/с и более поправка равна нулю.
P - Атмосферное давление - приведенное к уровню моря атмосферное давление.
Po - Атмосферное давление - измеренное на уровне метеостанции атмосферное давление.
Tmin - Минимальная температура - минимум температуры воздуха на высоте 2 м над землей.
Tmax - Максимальная температура - максимум температуры воздуха на высоте 2 м над землей.
R - Количество осадков - Количество выпавших осадков за период времени, мм. При наведении курсора мыши на число - период времени, за который выпало указанное количество осадков.
R24 - Количество осадков - Количество выпавших осадков за 24 часа, мм.
S - Снежный покров - Высота снежного покрова, см. При наведении курсора мыши на число - состояние снежного покрова и степень покрытия местности в баллах.